Hourly Weather Klasztorne

Today, 30 July, Friday

Time Temperature Precipitation Wind Pressure Humidity
00:00 +16°C° 0 mm 3 mps 752 mmHg 63%
01:00 +15°C° 0 mm 2 mps 751 mmHg 67%
02:00 +14°C° 0 mm 3 mps 751 mmHg 70%
03:00 +13°C° 0 mm 3 mps 751 mmHg 73%
04:00 +13°C° 0 mm 3 mps 751 mmHg 76%
05:00 +14°C° 0 mm 4 mps 751 mmHg 71%
06:00 +17°C° 0 mm 4 mps 751 mmHg 65%
07:00 +17°C° 0 mm 5 mps 751 mmHg 60%
08:00 +20°C° 0 mm 5 mps 751 mmHg 55%
09:00 +21°C° 0 mm 6 mps 751 mmHg 49%
10:00 +23°C° 0 mm 6 mps 751 mmHg 44%
11:00 +23°C° 0 mm 6 mps 750 mmHg 41%
12:00 +24°C° 0 mm 6 mps 750 mmHg 39%
13:00 +26°C° 0 mm 6 mps 750 mmHg 36%
14:00 +26°C° 0 mm 6 mps 750 mmHg 36%
15:00 +26°C° 0 mm 6 mps 750 mmHg 36%
16:00 +26°C° 0 mm 6 mps 749 mmHg 36%
17:00 +25°C° 0 mm 5 mps 749 mmHg 42%
18:00 +23°C° 0 mm 4 mps 749 mmHg 48%
19:00 +21°C° 0 mm 3 mps 749 mmHg 54%
20:00 +20°C° 0 mm 2 mps 749 mmHg 58%
21:00 +20°C° 0 mm 1 mps 750 mmHg 63%
22:00 +18°C° 0 mm 1 mps 750 mmHg 68%
23:00 +18°C° 0 mm 1 mps 749 mmHg 69%

Tomorrow, 31 July, Saturday

Time Temperature Precipitation Wind Pressure Humidity
00:00 +18°C° 0 mm 1 mps 749 mmHg 70%
01:00 +17°C° 0 mm 2 mps 749 mmHg 71%
02:00 +17°C° 0 mm 2 mps 749 mmHg 72%
03:00 +16°C° 0 mm 2 mps 749 mmHg 73%
04:00 +16°C° 0 mm 2 mps 748 mmHg 74%
05:00 +18°C° 0 mm 3 mps 748 mmHg 70%
06:00 +19°C° 0 mm 3 mps 748 mmHg 66%
07:00 +20°C° 0 mm 4 mps 748 mmHg 63%
08:00 +22°C° 0 mm 4 mps 748 mmHg 58%
09:00 +23°C° 0 mm 5 mps 748 mmHg 53%
10:00 +26°C° 0 mm 5 mps 748 mmHg 48%
11:00 +27°C° 0 mm 6 mps 748 mmHg 43%
12:00 +27°C° 0 mm 7 mps 748 mmHg 39%
13:00 +28°C° 0 mm 7 mps 748 mmHg 34%
14:00 +27°C° 0 mm 7 mps 748 mmHg 36%
15:00 +27°C° 0 mm 7 mps 748 mmHg 38%
16:00 +26°C° 0 mm 7 mps 748 mmHg 40%
17:00 +24°C° 0 mm 6 mps 748 mmHg 44%
18:00 +23°C° 0 mm 6 mps 748 mmHg 48%
19:00 +21°C° 0 mm 5 mps 748 mmHg 51%
20:00 +20°C° 0 mm 4 mps 749 mmHg 56%
21:00 +19°C° 0 mm 4 mps 749 mmHg 61%
22:00 +18°C° 0 mm 3 mps 749 mmHg 65%
23:00 +17°C° 0 mm 3 mps 749 mmHg 69%

Day after tomorrow, 1 August, Sunday

Time Temperature Precipitation Wind Pressure Humidity
00:00 +17°C° 0 mm 3 mps 749 mmHg 73%
01:00 +15°C° 0 mm 4 mps 749 mmHg 76%
02:00 +16°C° 0 mm 3 mps 749 mmHg 80%
03:00 +16°C° 0 mm 3 mps 749 mmHg 83%
04:00 +14°C° 0 mm 3 mps 750 mmHg 87%
05:00 +16°C° 0 mm 3 mps 750 mmHg 84%
06:00 +17°C° 0 mm 3 mps 750 mmHg 81%
07:00 +18°C° 0 mm 3 mps 750 mmHg 78%
08:00 +19°C° 0 mm 3 mps 750 mmHg 71%
09:00 +20°C° 0 mm 3 mps 750 mmHg 64%
10:00 +21°C° 0 mm 3 mps 750 mmHg 57%
11:00 +22°C° 0 mm 3 mps 750 mmHg 54%
12:00 +22°C° 0 mm 3 mps 750 mmHg 52%
13:00 +22°C° 0 mm 3 mps 750 mmHg 49%
14:00 +22°C° 0 mm 3 mps 750 mmHg 49%
15:00 +24°C° 0 mm 3 mps 750 mmHg 48%
16:00 +24°C° 0 mm 2 mps 750 mmHg 48%
17:00 +23°C° 0 mm 2 mps 750 mmHg 52%
18:00 +21°C° 0 mm 2 mps 750 mmHg 56%
19:00 +21°C° 0 mm 1 mps 750 mmHg 60%
20:00 +20°C° 0 mm 1 mps 750 mmHg 65%
21:00 +19°C° 0 mm 1 mps 750 mmHg 69%
22:00 +18°C° 0 mm 1 mps 750 mmHg 74%
23:00 +16°C° 0 mm 1 mps 750 mmHg 75%

2 August, Monday

Time Temperature Precipitation Wind Pressure Humidity
00:00 +16°C° 0 mm 1 mps 750 mmHg 77%
01:00 +15°C° 0 mm 1 mps 750 mmHg 78%
02:00 +15°C° 0 mm 1 mps 750 mmHg 80%
03:00 +15°C° 0 mm 2 mps 750 mmHg 81%
04:00 +15°C° 0 mm 2 mps 749 mmHg 83%
05:00 +14°C° 0.1 mm 3 mps 750 mmHg 82%
06:00 +16°C° 0.1 mm 3 mps 750 mmHg 82%
07:00 +17°C° 0.1 mm 4 mps 750 mmHg 81%
08:00 +18°C° 0.1 mm 4 mps 750 mmHg 77%
09:00 +19°C° 0.1 mm 5 mps 750 mmHg 74%
10:00 +19°C° 0.1 mm 5 mps 751 mmHg 70%
11:00 +20°C° 0.1 mm 5 mps 751 mmHg 64%
12:00 +20°C° 0.1 mm 6 mps 751 mmHg 58%
13:00 +21°C° 0.1 mm 6 mps 751 mmHg 51%
14:00 +21°C° 0 mm 6 mps 751 mmHg 48%
15:00 +21°C° 0 mm 6 mps 751 mmHg 46%
16:00 +22°C° 0 mm 5 mps 751 mmHg 43%
17:00 +21°C° 0 mm 5 mps 751 mmHg 46%
18:00 +20°C° 0 mm 5 mps 752 mmHg 49%
19:00 +19°C° 0 mm 4 mps 752 mmHg 53%
20:00 +18°C° 0 mm 4 mps 752 mmHg 59%
21:00 +16°C° 0 mm 3 mps 752 mmHg 64%
22:00 +14°C° 0 mm 3 mps 753 mmHg 70%
23:00 +14°C° 0 mm 3 mps 753 mmHg 73%

3 August, Tuesday

Time Temperature Precipitation Wind Pressure Humidity
00:00 +13°C° 0 mm 3 mps 753 mmHg 77%
01:00 +13°C° 0 mm 3 mps 754 mmHg 80%
02:00 +12°C° 0 mm 3 mps 754 mmHg 84%
03:00 +12°C° 0 mm 3 mps 754 mmHg 87%
04:00 +11°C° 0 mm 3 mps 754 mmHg 91%
05:00 +12°C° 0 mm 3 mps 754 mmHg 85%
06:00 +14°C° 0 mm 4 mps 755 mmHg 79%
07:00 +15°C° 0 mm 4 mps 755 mmHg 73%
08:00 +18°C° 0 mm 4 mps 755 mmHg 65%
09:00 +19°C° 0 mm 4 mps 755 mmHg 57%
10:00 +21°C° 0 mm 4 mps 755 mmHg 50%
11:00 +22°C° 0 mm 4 mps 755 mmHg 46%
12:00 +24°C° 0 mm 3 mps 755 mmHg 42%
13:00 +25°C° 0 mm 3 mps 755 mmHg 38%
14:00 +25°C° 0 mm 3 mps 754 mmHg 37%
15:00 +25°C° 0 mm 3 mps 754 mmHg 36%
16:00 +26°C° 0 mm 2 mps 754 mmHg 35%
17:00 +24°C° 0 mm 2 mps 754 mmHg 41%
18:00 +23°C° 0 mm 2 mps 754 mmHg 46%
19:00 +21°C° 0 mm 1 mps 754 mmHg 52%
20:00 +19°C° 0 mm 2 mps 754 mmHg 57%
21:00 +18°C° 0 mm 2 mps 755 mmHg 62%
22:00 +16°C° 0 mm 2 mps 755 mmHg 66%
23:00 +16°C° 0 mm 2 mps 755 mmHg 70%

4 August, Wednesday

Time Temperature Precipitation Wind Pressure Humidity
00:00 +16°C° 0 mm 2 mps 755 mmHg 74%
01:00 +15°C° 0 mm 2 mps 755 mmHg 78%
02:00 +15°C° 0 mm 2 mps 755 mmHg 77%
03:00 +16°C° 0 mm 2 mps 755 mmHg 77%
04:00 +16°C° 0 mm 2 mps 755 mmHg 76%
05:00 +16°C° 0 mm 2 mps 755 mmHg 75%
06:00 +17°C° 0 mm 2 mps 756 mmHg 73%
07:00 +17°C° 0 mm 2 mps 756 mmHg 72%
08:00 +18°C° 0 mm 2 mps 756 mmHg 66%
09:00 +20°C° 0 mm 2 mps 756 mmHg 60%
10:00 +21°C° 0 mm 2 mps 756 mmHg 55%
11:00 +23°C° 0 mm 2 mps 756 mmHg 51%
12:00 +24°C° 0 mm 2 mps 756 mmHg 47%
13:00 +25°C° 0 mm 2 mps 756 mmHg 43%
14:00 +25°C° 0 mm 2 mps 756 mmHg 45%
15:00 +24°C° 0 mm 2 mps 756 mmHg 46%
16:00 +24°C° 0 mm 1 mps 755 mmHg 48%
17:00 +23°C° 0 mm 2 mps 755 mmHg 49%
18:00 +21°C° 0 mm 2 mps 755 mmHg 50%
19:00 +21°C° 0 mm 3 mps 755 mmHg 52%
20:00 +20°C° 0 mm 3 mps 755 mmHg 54%
21:00 +19°C° 0 mm 3 mps 756 mmHg 56%
22:00 +18°C° 0 mm 3 mps 756 mmHg 58%
23:00 +17°C° 0 mm 3 mps 756 mmHg 61%
Show more